Retour au catalogue

STARLINK-36441

ActifCommunicationsVLEO
NORAD 67469·PAYLOAD·🇺🇸 United States

Lancé Jan 14, 2026 depuis Cape Canaveral Space Force Station

Loading…

Prochains Passages (prochaines 24 heures)

TLE

FraisSource: CelesTrak SupGP

Époque: Sep 15, 2026, 03:41 UTC

1 67469C 26008AA  26258.15395833 -.00049155  00000+0 -17808-2 0  2587
2 67469  43.0022 215.5368 0001352 272.5380 125.6191 15.27595673    19

Suivez STARLINK-36441 en temps réel avec AllMySat

Download on the App Store